CZ-6A DEB, 61479

Orbit data source: Space-Track

CZ-6A DEB, 61479 is space debris in LEO originally from a launch on Tue, 06 Aug 2024 UTC launched from the Taiyaun Space Center, China (TSC). Debris objects in space refer to the collection of defunct objects orbiting the Earth. Examples of debris include non-operational satellites, rocket bodies, and fragments generated from explosions, collisions, or faulty payload assembly.

Loading next visibility...
CZ-6A DEB details
Identifier
61479, 2024-140AAM
Orbit
LEO
Last TLE update18 hours ago
Origin
Flag of CNCNSA (CN / PRC)
ManufacturerSAST
MissionSpacecraft
Bus & MotorUnknown
MassUnknown
Launch date (UTC)
2024-08-06 (6 months ago)
Launch vehicleUnknown
Launch site
Taiyaun Space Center, China (TSC)
Object type
Payload
Rocket body
Debris
Shape & HBRUnknown
Radar Cross SectionSmall (<0.1 m²)

Expand to show TLE details & history

TLE from 18 hours ago
0 CZ-6A DEB
1 61479U 24140AAM 25035.52515329  .00002871  00000-0  16558-2 0  9990
2 61479  89.0794 332.7843 0162519 335.3143  24.0319 14.02481521 23420
Epoch: 2025-02-04T12:36Z
Definitive object data (Epoch: 2025-02-04T12:36:13.244Z)
Latitude-0°
Longitude8.79992°
Altitude780.736 km
Speed7.518 km/s
True Right ascension22h 11m 08s
True Declination0° 00' 00"
Sunlit
Object was in daylight at TLE epoch
Visualization TLE readout
Latitude-62.0533°
Longitude-169.55078°
Altitude909.366 km
Speed7.396 km/s
Apparent Right ascension18h 34m 14s
Apparent Declination-78° 48' 12"
Sunlit
Object is in daylight
Visualization observer readout
Local Sidereal Time08:55:36
Azimuth170.207° S
Elevation-48.671°
Doppler factor1
Orbital elements
Apogee altitude1,000.184 km
Perigee altitude764.195 km
Semi-major axis7,260.327 km
Eccentricity0.0162519
Inclination89.0794°
RAAN332.7843°
Arg. of periapsis335.3143°
True anomaly24.80463°
Mean anomaly24.0319°
Eccentric anomaly24.41682°
Mean motion3.5084 °/min
BSTAR0.0016558
Orbital period102.61 mins
Loading maneuver chart data...
Loading historical data...
Loading historical data...
Loading historical data...
Loading historical data...
Loading historical data...
Loading historical data...
Loading historical data...

CZ-6A DEB Visibility forecast

Observer location: undefined°, undefined

Span
Click to sort rows by Start time (UTC) header in descending order
Start Az.
Max El. time (UTC)
Max El. Az.
Max El.
End time (UTC)
End Az.
12 mins2025-02-05 08:00:21.404Z0.538° NNE2025-02-05 08:06:21.404Z303.027° NW44.985°2025-02-05 08:12:21.404Z183.624° SSW
8 mins2025-02-05 19:33:21.404Z145.487° SSE2025-02-05 19:36:21.404Z95.496° ESE35.071°2025-02-05 19:41:21.404Z14.051° NNE
6 mins2025-02-05 21:17:21.404Z248.327° W2025-02-05 21:19:21.404Z275.763° WNW19.681°2025-02-05 21:23:21.404Z325.304° NNW
5 mins2025-02-06 06:19:21.404Z54.703° ENE2025-02-06 06:21:21.404Z74.932° E13.824°2025-02-06 06:24:21.404Z104.214° ESE
|